Probability
0 0 0 0 0 0 0 0 0 0 0 0 0 0 0 0 0 0 0 0 0 0 0 0 0 0 0 0 0 0 0 0 0 0 0 0 0 0 0 0 0 0 0 0
0 0 0 0 0 0 0 0 0 0 0 0 0 0 0 0 0 0 0 0 0 0 0 0 0 0 0 0 0 0 0 0 0 0 0 0 0 0 0 0 0 0 0 0
0 0 0 0 0 0 0 0 0 0 0 0 0 0 0 0 0 0 0 0 0 0 0 0 0 0 0 0 0 0 0 0 0 0 0 0 0 0 0 0 0 0 0 0
0 0 0 0 0 0 0 0 0 0 0 0 0 0 0 0 0 0 0 0 0 0 0 0 0 0 0 0 0 0 0 0 0 0 0 0 0 0 0 0 0 0 0 0
0 0 0 0 0 0 0 0 0 0 0 0 0 0 0 0 0 0 0 0 0 0 0 0 0 0 0 0 0 0 0 0 0 0 0 0 0 0 0 0 0 0 0 0
0 0 0 0 0 0 0 0 0 0 0 0 0 0 0 0 0 0 0 0 0 0 0 0 0 0 0 0 0 0 0 0 0 0 0 0 0 0 0 0 0 0 0 0
0 0 0 0 0 0 0 0 0 0 0 0 0 0 0 0 0 0 0 0 0 0 0 0 0 0 0 0 0 0 0 0 0 0 0 0 0 0 0 0 0 0 0 0
0 0 0 0 0 0 0 0 0 0 0 0 0 0 0 0 0 0 0 0 0 0 0 0 0 0 0 0 0 0 0 0 0 0 0 0 1 0 0 0 0 0 0 0
0 0 0 0 0 0 0 0 0 0 0 0 0 0 0 0 0 0 0 0 0 0 0 0 0 0 0 0 0 0 0 0 0 0 0 0 0 0 0 0 0 0 0 0
0 0 0 0 0 0 0 0 0 0 0 0 0 0 0 0 0 0 0 0 0 0 0 0 0 0 0 0 0 0 0 0 0 0 0 0 0 0 0 0 1 0 0 0
0 0 0 0 0 0 0 0 0 0 0 0 0 0 0 0 0 0 0 0 0 0 0 0 0 0 0 0 0 0 0 0 0 0 0 0 0 0 0 0 0 0 0 0
0 0 0 0 0 0 0 0 0 0 0 0 0 0 0 0 0 0 0 0 0 0 0 0 0 0 0 0 0 0 0 0 0 0 0 0 0 0 0 0 0 0 0 0
0 0 0 0 0 0 0 0 0 0 0 0 0 0 0 0 0 0 0 0 0 0 0 0 0 0 0 0 0 0 0 0 0 0 0 0 0 0 0 0 0 0 0 1
0 0 0 0 0 0 0 0 0 0 0 0 0 0 0 0 0 0 0 0 0 0 0 0 0 0 0 0 0 0 0 0 0 0 0 0 0 0 0 0 0 0 0 1
0 0 0 0 0 0 0 0 0 0 0 0 0 0 0 0 0 0 0 0 0 0 0 0 0 0 0 0 0 0 0 0 0 0 0 0 0 0 0 0 0 0 0 1
0 0 0 0 0 0 0 0 0 0 0 0 0 0 0 0 0 0 0 0 0 0 0 0 0 0 0 0 0 0 0 0 0 0 0 0 0 0 0 0 0 0 0 0
0 0 0 0 0 0 0 0 0 0 0 0 0 0 0 0 0 0 0 0 0 0 0 0 0 0 0 0 0 0 0 0 0 0 0 0 0 0 0 0 0 0 0 0
0 0 0 0 0 0 0 0 0 0 0 0 0 0 0 0 0 0 0 0 0 0 0 0 0 0 0 0 0 0 0 0 0 0 0 0 0 0 0 0 0 0 0 0
0 0 0 0 0 0 0 0 0 0 0 0 0 0 0 0 0 0 0 0 0 0 0 0 0 0 0 0 0 0 0 0 0 0 0 0 0 0 0 0 0 0 0 0
0 0 0 0 0 0 0 0 0 0 0 0 0 0 0 0 0 0 0 0 0 0 0 0 0 0 0 0 0 0 0 0 0 0 0 0 0 0 0 0 0 0 0 0
0 0 0 0 0 0 0 0 0 0 0 0 0 0 0 0 0 0 0 0 0 0 0 0 0 0 0 0 0 0 0 0 0 0 0 0 0 0 0 0 0 0 0 0
0 0 0 0 0 0 0 0 0 0 0 0 0 0 0 0 0 0 0 0 0 0 0 0 0 0 0 0 0 0 0 0 0 0 0 0 0 0 0 0 0 0 0 0
0 0 0 0 0 0 0 0 0 0 0 0 0 0 0 0 0 0 0 0 0 0 0 0 0 0 0 0 0 0 0 0 0 0 0 0 0 0 0 0 0 0 0 0
0 0 0 0 0 0 0 0 0 0 0 0 0 0 0 0 0 0 0 0 0 0 0 0 0 0 0 0 0 0 0 0 0 0 0 0 0 0 0 0 0 0 0 0
0 0 0 0 0 0 0 0 0 0 0 0 0 0 0 0 0 0 0 0 0 0 0 0 0 0 0 0 0 0 0 0 0 0 0 0 0 0 0 0 0 0 0 0
0 0 0 0 0 0 0 0 0 0 0 0 0 0 0 0 0 0 0 0 0 0 0 0 0 0 0 0 0 0 0 0 0 0 0 0 0 0 0 0 0 0 0 0
Wind_Speed
10 10 17 21 20 11 12 14 13 9 5 9 14 17 17 13 11 13 13 13 13 15 14 12 14 15 15 15 16 17 16 15 13 10 9 9 9 9 9 9 10 11 11 11
10 20 20 15 15 11 12 14 13 6 3 6 10 17 17 16 15 15 16 15 15 14 12 13 14 15 17 18 18 18 18 17 16 13 11 8 9 9 10 9 11 12 12 12
21 14 16 15 16 17 16 18 14 7 3 3 6 15 19 17 16 15 15 15 15 16 16 15 15 17 17 19 20 17 19 19 19 17 11 9 8 7 8 10 10 12 13 13
19 10 18 20 21 20 18 12 10 8 7 7 7 12 14 15 17 17 17 16 17 17 16 15 15 16 18 19 18 19 19 19 19 18 15 16 13 13 13 11 10 12 13 13
17 16 21 24 22 20 9 10 9 7 8 8 9 12 12 8 15 17 18 19 19 18 18 18 17 18 18 17 16 17 18 19 19 19 19 18 16 13 11 11 12 12 12 13
9 10 17 16 15 14 11 10 6 2 4 13 18 15 15 11 15 13 16 18 19 19 18 18 16 14 14 14 14 15 17 18 19 19 20 20 20 17 15 15 12 11 9 10
10 9 8 9 15 14 14 12 7 8 10 13 7 13 17 8 11 14 15 16 16 15 15 16 16 15 14 14 15 15 17 19 19 20 20 21 21 19 19 16 14 13 10 10
21 18 18 15 18 18 22 20 13 11 11 8 6 15 13 6 8 10 11 11 10 12 12 13 13 13 13 13 14 15 17 18 18 19 20 19 19 15 13 16 13 13 11 11
23 19 15 13 9 19 21 20 11 4 2 5 10 11 12 7 10 12 13 13 14 13 12 12 11 10 11 11 13 14 16 16 16 17 18 17 18 16 15 15 14 11 11 9
13 13 13 10 7 9 15 15 8 9 10 11 11 13 13 7 12 15 15 16 15 11 9 9 9 8 8 8 9 10 13 14 14 14 14 12 15 16 14 13 13 12 12 11
9 12 12 14 19 21 15 17 13 11 9 10 11 12 8 12 11 12 13 12 10 9 8 7 6 6 6 6 7 8 10 11 11 12 12 12 13 12 12 11 12 11 10 11
9 8 10 15 7 15 15 19 19 15 11 11 10 13 4 9 8 8 8 7 7 7 6 6 5 5 5 6 6 7 7 8 9 9 10 10 10 10 10 11 10 10 10 10
12 11 11 7 5 11 18 18 22 14 8 8 10 15 4 6 7 9 9 8 7 6 6 5 5 6 6 6 6 6 6 7 6 7 8 9 9 9 9 9 8 9 9 9
11 9 14 21 16 17 20 21 22 17 11 14 20 23 12 10 10 9 9 9 7 6 6 6 6 7 7 7 7 7 7 6 6 7 7 8 8 7 7 7 7 8 8 9
9 8 9 11 10 19 18 21 23 23 22 20 24 28 27 20 15 11 8 7 7 7 8 8 8 7 7 8 8 7 7 7 7 7 7 7 6 6 6 6 7 7 7 8
12 10 9 6 11 17 16 23 26 27 29 28 27 30 28 19 14 13 11 10 10 11 10 9 9 9 9 10 9 9 8 8 8 8 7 6 6 6 6 6 7 7 7 7
14 10 12 11 8 8 14 26 29 28 30 30 32 35 18 15 16 17 15 14 14 13 11 10 11 10 11 11 10 10 9 9 8 8 7 7 7 7 7 7 7 8 8 8
14 11 6 8 9 16 17 16 21 27 29 30 29 26 20 19 15 12 13 14 14 13 12 11 10 10 9 9 9 9 9 9 9 8 8 8 8 8 7 8 8 8 7 8
14 12 7 8 12 13 10 13 24 26 28 28 30 28 17 6 3 12 13 13 14 13 12 10 9 8 7 9 10 10 9 9 9 10 9 9 9 9 9 9 9 8 7 7
11 11 9 9 13 18 20 14 13 12 22 25 26 25 16 9 12 17 10 11 12 10 8 6 5 5 7 8 9 10 10 11 11 11 9 9 9 9 9 9 8 6 7 7
14 11 15 13 13 15 9 11 19 19 21 11 16 19 16 18 20 11 6 8 8 7 5 4 5 5 5 7 10 10 10 11 9 7 8 8 8 8 8 8 7 8 8 8
18 15 16 13 14 16 9 16 20 13 3 7 11 15 17 19 16 10 5 5 4 4 3 4 4 3 4 7 9 9 9 7 7 8 9 8 8 7 7 9 8 8 9 9
15 15 11 13 14 3 13 12 9 6 8 8 8 9 12 12 12 10 7 6 4 4 3 3 4 4 4 5 6 7 6 7 8 8 8 8 8 7 8 9 10 9 8 8
7 6 7 7 9 7 9 5 4 5 6 6 6 7 8 9 8 7 5 4 4 3 3 3 5 5 4 3 3 4 6 7 8 9 8 8 8 8 8 7 8 8 9 9
8 9 8 8 5 4 7 9 7 5 3 3 4 4 7 8 6 6 5 5 4 3 3 4 4 4 4 4 4 4 6 8 8 8 7 7 7 8 7 6 6 7 6 7
5 8 12 11 10 9 9 9 9 8 7 7 6 4 3 5 6 6 5 4 4 4 4 4 4 4 4 4 4 4 5 7 8 7 7 6 6 6 6 6 4 5 5 6
Wind_Direction
171 186 201 199 204 220 198 202 210 211 186 205 228 241 246 239 231 237 234 228 225 228 227 211 207 205 206 206 205 204 202 200 195 193 195 199 206 207 208 209 209 207 204 201
174 212 206 197 197 196 199 208 214 208 188 221 245 251 250 245 240 238 237 232 229 231 222 211 207 203 206 207 208 208 206 202 199 199 197 200 200 207 210 207 209 208 207 204
197 203 185 181 186 196 208 213 209 197 155 222 270 261 244 240 235 238 239 240 239 234 229 218 208 207 208 210 209 208 208 206 203 202 200 198 202 204 203 208 209 209 208 206
208 185 180 189 197 197 213 213 203 186 200 224 224 264 243 233 232 230 232 231 234 234 233 228 216 211 210 213 210 210 210 208 206 202 203 200 202 209 210 207 207 206 207 209
199 185 185 196 200 195 197 169 182 199 224 247 227 254 257 212 235 233 229 229 231 232 231 228 222 217 215 213 210 210 211 210 207 204 205 206 213 216 213 208 208 207 205 208
184 185 196 200 190 179 134 120 103 136 215 243 234 236 260 221 229 229 229 228 229 230 231 232 231 224 222 214 210 210 210 211 209 207 208 211 213 213 211 208 206 205 204 206
178 182 189 171 160 167 167 156 165 191 210 234 206 226 252 229 218 224 230 231 231 232 234 234 231 225 222 215 210 210 210 212 208 208 210 213 215 214 214 211 209 205 204 204
187 194 189 184 181 180 190 189 190 195 208 214 189 233 250 227 231 241 250 254 255 245 238 238 236 232 227 220 214 211 212 214 209 209 212 213 214 214 215 214 210 208 206 205
192 198 177 185 183 176 185 204 208 181 122 219 221 244 270 240 244 242 243 245 247 246 243 243 241 236 231 224 217 214 214 215 212 211 212 213 212 213 212 211 211 209 207 200
188 181 171 166 146 190 192 175 166 189 188 224 237 237 239 207 217 224 230 235 242 245 243 241 239 235 230 227 221 217 217 217 215 212 212 212 212 212 212 210 208 206 202 192
172 158 158 173 190 183 172 181 188 195 214 215 236 243 227 220 211 219 227 231 236 242 245 243 236 231 225 219 213 211 212 213 213 212 212 211 212 209 209 209 206 201 195 189
162 144 164 191 205 200 190 191 190 192 201 220 237 253 190 214 226 230 239 241 243 250 251 248 237 226 222 218 212 209 208 208 208 207 207 209 208 205 204 204 200 192 187 185
159 144 139 166 185 193 203 199 201 204 183 192 217 247 206 202 224 228 237 247 248 246 248 239 228 223 220 217 213 209 207 205 200 198 199 202 203 201 201 197 188 182 178 174
161 170 187 198 196 185 198 200 200 197 205 216 227 245 239 224 231 229 230 238 242 242 241 238 232 225 220 215 211 208 204 198 192 191 194 197 199 195 189 178 174 172 169 167
176 186 200 208 178 176 192 198 198 205 213 219 232 239 245 238 235 235 230 229 234 241 237 233 230 226 219 214 212 207 201 191 185 186 191 191 183 174 163 161 160 158 158 160
188 187 185 191 187 184 194 201 203 210 217 226 237 244 245 242 239 240 234 227 236 241 238 232 226 222 219 214 208 201 199 189 183 185 186 177 167 162 160 155 149 146 147 149
187 170 178 200 181 174 210 204 205 213 219 223 231 241 241 231 228 232 232 230 236 242 242 237 232 224 219 211 202 198 191 180 182 184 178 171 166 163 159 153 150 152 152 149
182 173 171 165 163 211 227 209 207 216 222 224 232 242 235 234 232 227 225 228 233 239 241 241 234 228 216 202 195 187 177 178 181 182 179 174 171 166 159 157 157 153 151 154
188 174 167 182 204 229 241 202 202 211 228 225 231 239 237 225 234 245 229 224 232 234 234 236 228 220 198 188 181 172 174 177 183 187 185 180 174 167 165 166 162 154 151 149
188 178 176 187 207 222 233 200 182 196 241 227 224 235 227 183 234 248 214 212 228 233 232 228 212 191 187 178 167 171 179 184 194 191 183 174 172 170 170 166 157 150 148 146
181 186 196 200 217 238 228 155 154 191 233 213 208 224 217 214 231 246 183 201 214 219 220 208 190 185 183 162 164 178 185 197 190 167 160 164 168 167 162 153 150 148 145 142
183 189 200 202 216 231 169 161 184 210 161 165 194 210 212 222 232 234 204 195 195 196 190 179 170 171 154 160 171 184 194 181 154 155 160 163 161 159 154 152 151 152 152 149
195 191 187 200 218 194 165 191 200 176 189 191 190 198 202 211 221 221 212 198 190 181 169 156 157 148 142 164 176 185 174 152 153 155 161 160 158 158 159 160 160 159 162 162
211 181 171 201 223 201 198 207 207 199 200 192 189 187 186 194 198 193 184 173 167 162 158 146 144 148 152 154 156 155 142 148 152 159 161 161 162 162 163 167 170 171 174 174
185 176 189 212 212 175 210 208 202 198 187 164 163 175 184 180 177 171 164 163 158 146 134 135 146 147 142 138 139 136 144 151 155 158 160 163 166 165 168 173 181 186 189 190
184 187 195 211 199 193 204 202 194 186 192 186 168 158 145 159 163 148 144 141 136 133 126 125 127 129 130 134 136 138 149 156 155 158 165 169 169 168 168 167 164 187 186 192